Regional Weather Roundup
Issued by NWS Green Bay, WI

Home | Current Version | Previous Version | Graphics & Text | Print | Product List | Glossary Off
Versions: 1 2 3 4 5 6 7 8 9 10 11 12 13 14 15 16 17 18 19 20 21 22 23 24 25 26 27 28 29 30 31 32 33 34 35 36 37 38 39 40 41 42 43 44 45 46 47 48 49 50

000
ASUS43 KGRB 250410
RWRGRB

NORTH-CENTRAL AND NORTHEAST WISCONSIN REGIONAL WEATHER ROUNDUP
NATIONAL WEATHER SERVICE GREEN BAY WI
1000 PM CST WED DEC 24 2014

WIZ005-009-010>012-018-019-250500-
NORTH CENTRAL WISCONSIN

CITY           SKY/WX    TMP DP  RH WIND       PRES   REMARKS
IRONWOOD       CLOUDY    30  30 100 W9        29.46S
MANITOWISH WTR CLOUDY    29  29 100 W7        29.48R
ARBOR VITAE    CLOUDY    32  30  94 W5        29.47S
EAGLE RIVER    CLOUDY    29  29  99 W6        29.45R
LAND O LAKES   CLOUDY    30  29  96 W3        29.45S
RHINELANDER    CLOUDY    29  27  92 W8        29.47S
PHILLIPS       CLOUDY    30  29  96 W3        29.51R
ANTIGO         CLOUDY    30  28  93 NW12      29.47S
TOMAHAWK       CLOUDY    29  28  95 CALM      29.50R
MERRILL        PTCLDY    30  29  97 NW6       29.51R
$$

WIZ013-073-250500-
NORTHEAST WISCONSIN

CITY           SKY/WX    TMP DP  RH WIND       PRES   REMARKS
IRON MOUNTAIN  CLOUDY    31  28  89 W9        29.41F
MARINETTE      CLOUDY    34  28  80 NW7       29.45S
OCONTO         CLOUDY    32  32  99 W6        29.48R
$$

WIZ017-030-035>037-045-250500-
CENTRAL WISCONSIN

CITY           SKY/WX    TMP DP  RH WIND       PRES   REMARKS
MEDFORD        CLOUDY    30  28  90 W8        29.52R
WAUSAU         CLOUDY    32  29  88 W8        29.50R
MOSINEE        CLOUDY    32  32 100 W7        29.52S
MARSHFIELD     CLOUDY    33  29  85 W10       29.54R
WISC RAPIDS    CLOUDY    33  29  85 W7        29.56R
STEVENS POINT  CLOUDY    31  29  90 W6        29.53S
WAUPACA        CLOUDY    35  32  87 W5        29.53S
SHAWANO        CLOUDY    35  31  86 W3        29.49F
CLINTONVILLE   CLOUDY    32  32 100 W5        29.50S
$$

WIZ038-039-048-051-250500-
FOX VALLEY

CITY           SKY/WX    TMP DP  RH WIND       PRES   REMARKS
NWS GREEN BAY  CLOUDY    34  31  88 W8        29.50R
APPLETON       CLOUDY    34  32  93 NW12      29.51R
OSHKOSH        CLOUDY    34  30  85 W7        29.52R
FOND DU LAC    CLOUDY    34  30  85 W10       29.53R
$$

WIZ022-050-052-250500-
EAST CENTRAL WISCONSIN

CITY           SKY/WX    TMP DP  RH WIND       PRES   REMARKS
STURGEON BAY   CLOUDY    32  28  86 NW9       29.47S
MANITOWOC      CLOUDY    36  34  93 W10       29.50R
SHEBOYGAN      CLOUDY    34  31  88 W10       29.51R
$$

LMZ563-521-522-541>543-250500-
LAKESHORE

STATION/POSITION TIME  TEMP    WIND        PRES    VSBY  WAVE
                       AIR SEA DIR/SP/G                  HT/PER
                 (UTC) (F)     (DEG/KT/KT) (MB)    (MI)  (FT/S)
SHEBOYGAN LKSHOR 0400   35 36  280/ 10/ 12 1000.0R
KEWAUNEE LKSHORE 0400   34     300/  7/ 14  997.3F
ALGOMA MARINA    0400          310/ 10/ 16   N/A
NORTHPORT PIER   0400   33     300/  9/ 14  997.3R
SISTER BAY LKSHO 0400          300/ 14/ 17   N/A
CHAMBERS ISLAND  0400   33     260/  2/  8  998.0S
MENOMINEE LKSHOR 0400   33     260/  6/  9  998.4S
$$



USA.gov is the U.S. government's official web portal to all federal, state and local government web resources and services.